Location: Newark
(42.8481°N, 0.4872°E)
Time: 22:49:25
(UTC+00:00)

Transit 2A - Pass Details

Date: 29 October 2020
Orbit: 595 x 963 km, 66.7° (Epoch: 03 December)

Event Time Altitude Azimuth Distance (km) Brightness Sun altitude
Rises 08:01:50 0° 335° (NNW) 3,493 8.9 14.4°
Reaches altitude 10° 08:05:04 10° 351° (N) 2,486 8.3 14.9°
Maximum altitude 08:09:20 21° 40° (NE) 1,739 8.0 15.5°
Drops below altitude 10° 08:13:18 10° 89° (E) 2,287 9.4 16.1°
Sets 08:16:07 0° 105° (ESE) 3,137 10.5 16.5°
